Weather History for San Angelo, TX

Change the Weather History Date:

Saturday, December 8, 2012

  Actual Average Record
Temperature  
Mean Temperature 60 °F 48 °F  
Max Temperature 80 °F 61 °F 85 °F (1977)
Min Temperature 40 °F 34 °F 12 °F (2005)
Degree Days  
Heating Degree Days 5 17  
Month to date heating degree days 30 132  
Since 1 July heating degree days 335 532  
Cooling Degree Days 0 0  
Month to date cooling degree days 17 0  
Year to date cooling degree days 3243 2502  
Growing Degree Days 10 (Base 50)    
Moisture  
Dew Point 45 °F    
Average Humidity 57    
Maximum Humidity 96    
Minimum Humidity 17    
Precipitation  
Precipitation 0.00 in 0.03 in 1.89 in (1912)
Month to date precipitation 0.00 0.20  
Year to date precipitation 21.78 20.60  
Snow  
Snow 0.00 in 0.00 in T in (1988)
Month to date snowfall 0.0 0.1  
Since 1 July snowfall T 0.4  
Snow Depth 0.00 in    
Sea Level Pressure  
Sea Level Pressure 29.85 in    
Wind  
Wind Speed 4 mph (SW)    
Max Wind Speed 14 mph    
Max Gust Speed 18 mph    
Visibility 7 miles    
Events Fog    
T = Trace of Precipitation, MM = Missing Value Source: NWS Daily Summary

Daily Weather History Graph

Daily Weather History Graph

Search for Another Location

Airport:

Trip Planner

Search our weather history database for the weather conditions in past years. The results will help you decide how hot, cold, wet, or windy it might be!

Date:

Astronomy

Dec. 08, 2012 Rise Set
Actual Time 7:29 AM CST 5:39 PM CST
Civil Twilight 7:02 AM CST 6:05 PM CST
Nautical Twilight 6:32 AM CST 6:36 PM CST
Astronomical Twilight 6:02 AM CST 7:05 PM CST
Moon 2:11 AM CST (12/8) 1:56 PM CST (12/8)
Length of Visible Light 11h 03m
Length of Day
10h 10m
Waning Crescent, 28% of the Moon is Illuminated
Dec 8
Waning Crescent
Dec 13
New
Dec 19
First Quarter
Dec 28
Full
Jan 4
Last Quarter

Hourly Weather History & Observations

Time (CST) Temp. Windchill Dew Point Humidity Pressure Visibility Wind Dir Wind Speed Gust Speed Precip Events Conditions
12:51 AM 48.0 °F - 44.1 °F 86% 29.85 in 10.0 mi SW 3.5 mph - N/A   Clear
1:51 AM 46.9 °F - 43.0 °F 86% 29.84 in 10.0 mi WNW 4.6 mph - N/A   Clear
2:51 AM 44.1 °F 42.5 °F 41.0 °F 89% 29.84 in 10.0 mi WSW 3.5 mph - N/A   Clear
3:51 AM 43.0 °F 40.3 °F 41.0 °F 93% 29.83 in 10.0 mi WSW 4.6 mph - N/A   Clear
4:51 AM 41.0 °F - 39.0 °F 93% 29.84 in 8.0 mi Calm Calm - N/A   Clear
5:51 AM 39.9 °F 37.8 °F 37.9 °F 93% 29.86 in 8.0 mi SSW 3.5 mph - N/A   Clear
6:24 AM 39.2 °F 35.0 °F 37.4 °F 93% 29.88 in 8.0 mi SW 5.8 mph - N/A   Partly Cloudy
6:29 AM 41.0 °F 38.0 °F 39.2 °F 93% 29.88 in 1.0 mi SW 4.6 mph - N/A   Mist
6:37 AM 41.0 °F - 39.2 °F 93% 29.88 in 1.0 mi Calm Calm - N/A   Mist
6:51 AM 42.1 °F - 41.0 °F 96% 29.88 in 1.8 mi Calm Calm - N/A   Overcast
7:05 AM 42.8 °F - 41.0 °F 93% 29.90 in 3.0 mi Calm Calm - N/A   Overcast
7:51 AM 45.0 °F - 43.0 °F 93% 29.90 in 7.0 mi Calm Calm - N/A   Overcast
8:04 AM 46.4 °F - 42.8 °F 87% 29.91 in 4.0 mi Calm Calm - N/A   Overcast
8:51 AM 48.9 °F - 43.0 °F 80% 29.91 in 10.0 mi Calm Calm - N/A   Overcast
9:48 AM 50.0 °F - 46.4 °F 87% 29.92 in 2.5 mi SSW 4.6 mph - N/A   Overcast
9:51 AM 51.1 °F - 48.0 °F 89% 29.92 in 3.0 mi SSW 3.5 mph - N/A   Overcast
9:57 AM 51.8 °F - 48.2 °F 88% 29.93 in 1.2 mi SSW 3.5 mph - N/A   Overcast
10:16 AM 51.8 °F - 50.0 °F 94% 29.92 in 0.2 mi Calm Calm - N/A Fog Fog
10:25 AM 51.8 °F - 50.0 °F 94% 29.92 in 1.2 mi Calm Calm - N/A   Overcast
10:27 AM 51.8 °F - 50.0 °F 94% 29.92 in 3.0 mi Calm Calm - N/A   Overcast
10:51 AM 55.0 °F - 51.1 °F 86% 29.91 in 6.0 mi SW 3.5 mph - N/A   Overcast
11:27 AM 57.2 °F - 53.6 °F 88% 29.91 in 10.0 mi SSW 4.6 mph - N/A   Scattered Clouds
11:51 AM 60.1 °F - 53.1 °F 78% 29.88 in 10.0 mi SW 3.5 mph - N/A   Clear
12:51 PM 66.9 °F - 48.0 °F 51% 29.84 in 10.0 mi Calm Calm - N/A   Clear
1:51 PM 73.0 °F - 46.9 °F 39% 29.79 in 10.0 mi Calm Calm - N/A   Clear
2:51 PM 75.9 °F - 50.0 °F 40% 29.76 in 10.0 mi Calm Calm - N/A   Clear
3:51 PM 79.0 °F - 44.1 °F 29% 29.76 in 10.0 mi Calm Calm - N/A   Clear
4:51 PM 78.1 °F - 30.0 °F 17% 29.75 in 10.0 mi West 8.1 mph - N/A   Clear
5:51 PM 68.0 °F - 32.0 °F 26% 29.77 in 10.0 mi South 8.1 mph - N/A   Clear
7:51 PM 64.0 °F - 48.9 °F 58% 29.79 in 10.0 mi South 10.4 mph - N/A   Clear
8:51 PM 63.0 °F - 48.9 °F 60% 29.80 in 10.0 mi South 11.5 mph - N/A   Clear
9:51 PM 62.1 °F - 53.1 °F 72% 29.81 in 10.0 mi South 10.4 mph - N/A   Clear
10:51 PM 61.0 °F - 55.0 °F 81% 29.82 in 10.0 mi SSW 6.9 mph - N/A   Clear
11:51 PM 59.0 °F - 55.0 °F 87% 29.82 in 8.0 mi SW 9.2 mph - N/A   Clear